QPF
0.00 0.00 0.00 0.01 0.00 0.00 0.01 0.00 0.00 0.00 0.00 0.00 0.00 0.00 0.00 0.00 0.00 0.00 0.00 0.00 0.00 0.00 0.00 0.00 0.00 0.00 0.00 0.00 0.00 0.01 0.02 0.03 0.04 0.07 0.08 0.09 0.08 0.06 0.04 0.05 0.04 0.05 0.03 0.03
0.00 0.00 0.00 0.00 0.00 0.00 0.00 0.00 0.00 0.00 0.00 0.00 0.00 0.00 0.00 0.00 0.00 0.00 0.00 0.00 0.00 0.00 0.00 0.00 0.00 0.00 0.00 0.00 0.00 0.00 0.01 0.02 0.03 0.04 0.05 0.06 0.07 0.06 0.06 0.06 0.07 0.05 0.04 0.04
0.00 0.00 0.00 0.00 0.00 0.00 0.00 0.00 0.00 0.00 0.00 0.00 0.01 0.03 0.01 0.00 0.00 0.00 0.00 0.00 0.00 0.00 0.00 0.00 0.00 0.00 0.00 0.00 0.00 0.00 0.01 0.01 0.02 0.03 0.03 0.04 0.05 0.07 0.08 0.09 0.09 0.06 0.05 0.04
0.00 0.00 0.00 0.00 0.00 0.00 0.00 0.00 0.00 0.00 0.00 0.00 0.01 0.03 0.02 0.00 0.00 0.00 0.00 0.00 0.00 0.00 0.00 0.00 0.00 0.00 0.00 0.00 0.00 0.00 0.01 0.01 0.02 0.02 0.03 0.04 0.06 0.08 0.09 0.08 0.07 0.06 0.06 0.04
0.00 0.00 0.00 0.00 0.00 0.00 0.00 0.00 0.00 0.00 0.00 0.01 0.00 0.01 0.02 0.01 0.00 0.00 0.00 0.00 0.00 0.00 0.00 0.00 0.00 0.00 0.00 0.00 0.00 0.00 0.01 0.02 0.02 0.02 0.03 0.04 0.05 0.06 0.05 0.05 0.07 0.06 0.06 0.05
0.00 0.00 0.00 0.00 0.00 0.00 0.00 0.00 0.00 0.00 0.00 0.00 0.01 0.02 0.03 0.02 0.01 0.00 0.01 0.00 0.00 0.00 0.00 0.00 0.00 0.00 0.00 0.00 0.00 0.00 0.01 0.02 0.02 0.03 0.04 0.04 0.05 0.04 0.03 0.03 0.05 0.06 0.05 0.04
0.00 0.00 0.00 0.00 0.00 0.00 0.00 0.00 0.01 0.03 0.03 0.01 0.01 0.01 0.02 0.02 0.01 0.00 0.00 0.00 0.00 0.00 0.00 0.00 0.00 0.00 0.00 0.00 0.00 0.00 0.00 0.01 0.01 0.02 0.03 0.04 0.04 0.04 0.03 0.03 0.03 0.03 0.03 0.02
0.00 0.00 0.00 0.00 0.00 0.00 0.00 0.00 0.00 0.01 0.02 0.02 0.02 0.01 0.01 0.01 0.00 0.00 0.00 0.00 0.00 0.00 0.00 0.00 0.00 0.00 0.00 0.00 0.00 0.00 0.00 0.01 0.01 0.01 0.03 0.04 0.04 0.04 0.03 0.02 0.01 0.01 0.01 0.01
0.00 0.00 0.00 0.00 0.00 0.00 0.00 0.00 0.00 0.01 0.01 0.03 0.03 0.02 0.01 0.01 0.01 0.00 0.00 0.00 0.00 0.00 0.00 0.00 0.00 0.00 0.00 0.00 0.00 0.00 0.00 0.02 0.02 0.02 0.03 0.05 0.03 0.02 0.02 0.01 0.01 0.01 0.01 0.01
0.00 0.00 0.00 0.00 0.00 0.00 0.00 0.00 0.00 0.00 0.01 0.02 0.03 0.03 0.04 0.04 0.01 0.00 0.00 0.00 0.00 0.00 0.00 0.00 0.00 0.00 0.00 0.00 0.00 0.00 0.01 0.02 0.02 0.02 0.02 0.03 0.03 0.02 0.01 0.01 0.01 0.02 0.02 0.03
0.00 0.01 0.00 0.00 0.00 0.00 0.00 0.00 0.00 0.00 0.00 0.01 0.03 0.05 0.05 0.04 0.01 0.01 0.00 0.00 0.00 0.00 0.00 0.00 0.00 0.00 0.00 0.00 0.00 0.01 0.02 0.02 0.02 0.03 0.02 0.02 0.03 0.02 0.01 0.01 0.01 0.02 0.02 0.03
0.00 0.01 0.01 0.00 0.00 0.00 0.00 0.00 0.00 0.00 0.00 0.00 0.02 0.05 0.02 0.01 0.02 0.02 0.00 0.01 0.00 0.00 0.00 0.00 0.00 0.00 0.00 0.00 0.00 0.01 0.02 0.02 0.01 0.01 0.01 0.01 0.01 0.01 0.01 0.01 0.01 0.02 0.02 0.02
0.00 0.00 0.01 0.01 0.00 0.00 0.00 0.00 0.00 0.00 0.00 0.00 0.00 0.03 0.02 0.01 0.02 0.00 0.00 0.00 0.00 0.00 0.00 0.00 0.00 0.00 0.01 0.01 0.00 0.00 0.01 0.01 0.01 0.01 0.01 0.01 0.01 0.01 0.01 0.01 0.01 0.01 0.02 0.03
0.00 0.00 0.00 0.00 0.00 0.00 0.00 0.00 0.00 0.00 0.00 0.00 0.00 0.01 0.01 0.00 0.00 0.00 0.00 0.00 0.00 0.00 0.01 0.00 0.00 0.00 0.00 0.00 0.00 0.00 0.00 0.00 0.00 0.00 0.00 0.01 0.01 0.01 0.01 0.01 0.01 0.01 0.02 0.04
0.00 0.00 0.00 0.00 0.00 0.00 0.00 0.00 0.00 0.00 0.00 0.00 0.00 0.02 0.02 0.01 0.00 0.00 0.00 0.00 0.00 0.00 0.01 0.01 0.00 0.00 0.00 0.00 0.00 0.00 0.00 0.00 0.00 0.00 0.00 0.00 0.00 0.00 0.00 0.00 0.00 0.00 0.00 0.01
0.00 0.00 0.00 0.00 0.00 0.00 0.00 0.00 0.00 0.00 0.00 0.00 0.01 0.03 0.03 0.01 0.00 0.00 0.00 0.00 0.01 0.01 0.00 0.00 0.00 0.00 0.00 0.00 0.00 0.00 0.00 0.00 0.01 0.01 0.01 0.01 0.00 0.01 0.01 0.00 0.01 0.00 0.00 0.01
0.00 0.00 0.00 0.00 0.00 0.00 0.00 0.00 0.00 0.00 0.00 0.00 0.01 0.02 0.01 0.00 0.00 0.00 0.00 0.00 0.00 0.00 0.00 0.00 0.00 0.00 0.00 0.00 0.00 0.00 0.00 0.01 0.01 0.01 0.01 0.01 0.01 0.00 0.00 0.00 0.00 0.00 0.00 0.01
0.00 0.00 0.00 0.00 0.00 0.01 0.01 0.01 0.02 0.02 0.00 0.00 0.01 0.02 0.01 0.00 0.00 0.00 0.01 0.00 0.00 0.01 0.01 0.01 0.00 0.00 0.00 0.00 0.00 0.00 0.00 0.00 0.01 0.01 0.01 0.01 0.00 0.00 0.00 0.00 0.00 0.00 0.01 0.01
0.00 0.00 0.00 0.00 0.00 0.00 0.01 0.01 0.01 0.01 0.00 0.00 0.00 0.01 0.01 0.00 0.00 0.02 0.03 0.01 0.01 0.01 0.01 0.01 0.00 0.00 0.00 0.00 0.00 0.00 0.00 0.01 0.01 0.01 0.01 0.01 0.00 0.00 0.00 0.01 0.00 0.00 0.01 0.01
0.00 0.00 0.00 0.00 0.00 0.00 0.01 0.00 0.00 0.00 0.01 0.00 0.00 0.00 0.00 0.01 0.01 0.03 0.01 0.01 0.01 0.01 0.01 0.01 0.00 0.01 0.01 0.01 0.01 0.01 0.01 0.02 0.01 0.01 0.01 0.01 0.01 0.02 0.02 0.01 0.01 0.01 0.00 0.00
0.00 0.00 0.00 0.00 0.00 0.01 0.02 0.01 0.00 0.01 0.01 0.00 0.00 0.00 0.00 0.00 0.01 0.01 0.01 0.00 0.00 0.00 0.00 0.01 0.01 0.01 0.02 0.03 0.03 0.02 0.02 0.02 0.01 0.01 0.01 0.01 0.02 0.03 0.03 0.02 0.01 0.01 0.01 0.00
0.00 0.00 0.00 0.01 0.01 0.02 0.02 0.01 0.01 0.01 0.00 0.00 0.00 0.00 0.00 0.01 0.00 0.00 0.00 0.00 0.00 0.00 0.00 0.01 0.01 0.02 0.02 0.02 0.02 0.03 0.03 0.03 0.03 0.03 0.03 0.03 0.03 0.02 0.02 0.03 0.03 0.02 0.02 0.02
0.00 0.00 0.01 0.01 0.01 0.01 0.00 0.00 0.02 0.01 0.00 0.00 0.00 0.00 0.00 0.01 0.01 0.00 0.00 0.00 0.00 0.01 0.01 0.01 0.02 0.02 0.02 0.02 0.02 0.02 0.02 0.03 0.03 0.02 0.02 0.02 0.04 0.04 0.05 0.06 0.05 0.04 0.03 0.03
0.00 0.00 0.00 0.00 0.00 0.00 0.00 0.00 0.02 0.01 0.00 0.00 0.00 0.00 0.00 0.01 0.01 0.01 0.01 0.01 0.01 0.01 0.02 0.02 0.02 0.02 0.03 0.02 0.02 0.02 0.02 0.02 0.03 0.03 0.03 0.04 0.05 0.05 0.06 0.06 0.06 0.05 0.04 0.05
0.02 0.01 0.00 0.01 0.00 0.00 0.00 0.00 0.00 0.00 0.00 0.01 0.01 0.00 0.00 0.01 0.01 0.01 0.01 0.02 0.02 0.02 0.03 0.03 0.03 0.03 0.03 0.03 0.03 0.03 0.03 0.03 0.03 0.03 0.03 0.04 0.05 0.05 0.05 0.05 0.06 0.07 0.07 0.07
0.04 0.04 0.02 0.02 0.01 0.01 0.01 0.00 0.01 0.01 0.01 0.01 0.01 0.01 0.01 0.01 0.02 0.02 0.02 0.02 0.02 0.02 0.03 0.03 0.04 0.05 0.06 0.07 0.07 0.05 0.05 0.05 0.04 0.03 0.03 0.04 0.05 0.06 0.07 0.09 0.10 0.09 0.06 0.05
MSLP
1007.68 1008.06 1008.24 1008.27 1008.25 1008.26 1008.38 1008.66 1009.10 1009.63 1010.17 1010.63 1010.93 1011.03 1010.95 1010.75 1010.54 1010.40 1010.43 1010.68 1011.15 1011.78 1012.49 1013.19 1013.78 1014.21 1014.45 1014.53 1014.49 1014.40 1014.33 1014.31 1014.38 1014.51 1014.70 1014.87 1015.01 1015.08 1015.07 1014.99 1014.87 1014.74 1014.65 1014.61
1008.42 1008.62 1008.63 1008.53 1008.41 1008.39 1008.55 1008.92 1009.49 1010.17 1010.83 1011.38 1011.72 1011.80 1011.65 1011.33 1010.97 1010.69 1010.59 1010.74 1011.14 1011.73 1012.44 1013.14 1013.74 1014.16 1014.40 1014.46 1014.39 1014.28 1014.20 1014.18 1014.27 1014.43 1014.64 1014.84 1014.99 1015.06 1015.03 1014.91 1014.76 1014.59 1014.47 1014.40
1008.90 1008.91 1008.76 1008.52 1008.34 1008.32 1008.54 1009.04 1009.76 1010.58 1011.38 1012.01 1012.38 1012.43 1012.20 1011.76 1011.27 1010.85 1010.63 1010.69 1011.02 1011.58 1012.28 1012.98 1013.59 1014.03 1014.26 1014.31 1014.23 1014.11 1014.02 1014.01 1014.11 1014.29 1014.53 1014.75 1014.91 1014.97 1014.92 1014.79 1014.60 1014.40 1014.25 1014.17
1009.12 1008.96 1008.66 1008.33 1008.12 1008.14 1008.46 1009.09 1009.96 1010.93 1011.84 1012.53 1012.91 1012.92 1012.59 1012.03 1011.40 1010.85 1010.52 1010.49 1010.76 1011.29 1011.98 1012.70 1013.32 1013.77 1014.02 1014.08 1014.01 1013.89 1013.81 1013.82 1013.93 1014.14 1014.39 1014.63 1014.80 1014.86 1014.80 1014.64 1014.42 1014.20 1014.02 1013.92
1009.15 1008.85 1008.44 1008.07 1007.86 1007.95 1008.38 1009.16 1010.17 1011.26 1012.25 1012.98 1013.34 1013.28 1012.85 1012.16 1011.39 1010.71 1010.27 1010.15 1010.36 1010.86 1011.55 1012.27 1012.92 1013.40 1013.67 1013.76 1013.72 1013.62 1013.57 1013.60 1013.74 1013.97 1014.24 1014.49 1014.67 1014.73 1014.66 1014.48 1014.24 1014.00 1013.80 1013.69
1009.11 1008.70 1008.23 1007.85 1007.69 1007.86 1008.41 1009.31 1010.43 1011.61 1012.64 1013.37 1013.68 1013.54 1013.00 1012.18 1011.28 1010.48 1009.93 1009.72 1009.87 1010.34 1011.00 1011.73 1012.40 1012.91 1013.22 1013.34 1013.34 1013.29 1013.27 1013.34 1013.51 1013.77 1014.07 1014.33 1014.52 1014.58 1014.50 1014.31 1014.06 1013.80 1013.59 1013.46
1009.09 1008.62 1008.14 1007.78 1007.68 1007.94 1008.59 1009.57 1010.76 1011.98 1013.01 1013.71 1013.95 1013.72 1013.07 1012.14 1011.13 1010.22 1009.57 1009.28 1009.37 1009.78 1010.41 1011.13 1011.79 1012.32 1012.66 1012.83 1012.88 1012.88 1012.91 1013.02 1013.23 1013.52 1013.84 1014.13 1014.32 1014.38 1014.30 1014.11 1013.85 1013.58 1013.36 1013.22
1009.17 1008.69 1008.23 1007.92 1007.88 1008.21 1008.91 1009.93 1011.14 1012.33 1013.33 1013.96 1014.13 1013.82 1013.09 1012.09 1011.00 1010.02 1009.29 1008.93 1008.94 1009.28 1009.86 1010.52 1011.16 1011.67 1012.03 1012.22 1012.31 1012.37 1012.45 1012.61 1012.86 1013.19 1013.54 1013.84 1014.05 1014.12 1014.05 1013.86 1013.60 1013.33 1013.11 1012.98
1009.39 1008.95 1008.53 1008.27 1008.28 1008.63 1009.34 1010.34 1011.49 1012.62 1013.54 1014.10 1014.20 1013.84 1013.08 1012.05 1010.94 1009.93 1009.17 1008.74 1008.68 1008.94 1009.42 1010.00 1010.56 1011.03 1011.36 1011.56 1011.68 1011.77 1011.89 1012.10 1012.39 1012.75 1013.13 1013.46 1013.69 1013.78 1013.73 1013.55 1013.31 1013.05 1012.84 1012.71
1009.76 1009.38 1009.02 1008.80 1008.82 1009.16 1009.81 1010.72 1011.76 1012.78 1013.59 1014.07 1014.14 1013.77 1013.03 1012.04 1010.98 1010.00 1009.24 1008.78 1008.65 1008.80 1009.16 1009.62 1010.08 1010.46 1010.73 1010.90 1011.01 1011.11 1011.27 1011.51 1011.84 1012.23 1012.63 1012.99 1013.25 1013.37 1013.34 1013.20 1012.99 1012.76 1012.57 1012.45
1010.24 1009.94 1009.64 1009.44 1009.45 1009.71 1010.24 1011.01 1011.89 1012.75 1013.46 1013.87 1013.92 1013.60 1012.95 1012.08 1011.13 1010.24 1009.53 1009.07 1008.88 1008.93 1009.15 1009.46 1009.77 1010.03 1010.20 1010.31 1010.38 1010.48 1010.64 1010.89 1011.24 1011.65 1012.08 1012.46 1012.75 1012.91 1012.93 1012.83 1012.66 1012.47 1012.31 1012.22
1010.78 1010.58 1010.33 1010.14 1010.08 1010.23 1010.61 1011.18 1011.87 1012.56 1013.14 1013.51 1013.58 1013.35 1012.85 1012.15 1011.38 1010.63 1010.01 1009.58 1009.35 1009.30 1009.39 1009.53 1009.67 1009.78 1009.83 1009.85 1009.86 1009.92 1010.07 1010.32 1010.67 1011.09 1011.53 1011.93 1012.25 1012.45 1012.52 1012.48 1012.36 1012.22 1012.10 1012.03
1011.36 1011.24 1011.04 1010.84 1010.70 1010.71 1010.90 1011.25 1011.73 1012.25 1012.71 1013.04 1013.16 1013.06 1012.74 1012.26 1011.70 1011.14 1010.64 1010.27 1010.02 1009.88 1009.83 1009.81 1009.79 1009.74 1009.66 1009.57 1009.51 1009.51 1009.62 1009.85 1010.17 1010.58 1011.01 1011.42 1011.76 1012.00 1012.12 1012.14 1012.09 1012.01 1011.93 1011.90
1011.95 1011.92 1011.75 1011.52 1011.30 1011.16 1011.15 1011.29 1011.56 1011.90 1012.26 1012.56 1012.74 1012.78 1012.66 1012.41 1012.08 1011.71 1011.36 1011.06 1010.81 1010.61 1010.44 1010.27 1010.10 1009.90 1009.69 1009.49 1009.34 1009.28 1009.33 1009.50 1009.78 1010.15 1010.55 1010.95 1011.29 1011.56 1011.73 1011.81 1011.83 1011.81 1011.79 1011.80
1012.55 1012.59 1012.45 1012.19 1011.89 1011.61 1011.43 1011.37 1011.45 1011.64 1011.90 1012.18 1012.42 1012.59 1012.65 1012.62 1012.51 1012.33 1012.11 1011.88 1011.64 1011.39 1011.13 1010.85 1010.54 1010.21 1009.89 1009.59 1009.36 1009.21 1009.19 1009.28 1009.49 1009.78 1010.12 1010.47 1010.80 1011.08 1011.28 1011.43 1011.52 1011.58 1011.63 1011.69
1013.16 1013.25 1013.14 1012.86 1012.50 1012.12 1011.79 1011.58 1011.50 1011.57 1011.74 1012.00 1012.29 1012.55 1012.77 1012.91 1012.97 1012.95 1012.84 1012.67 1012.44 1012.16 1011.83 1011.45 1011.04 1010.61 1010.19 1009.81 1009.49 1009.26 1009.13 1009.13 1009.23 1009.41 1009.66 1009.95 1010.23 1010.50 1010.74 1010.94 1011.10 1011.25 1011.38 1011.51
1013.76 1013.89 1013.80 1013.53 1013.14 1012.70 1012.28 1011.96 1011.78 1011.74 1011.86 1012.09 1012.39 1012.73 1013.04 1013.30 1013.47 1013.54 1013.51 1013.38 1013.15 1012.84 1012.45 1012.00 1011.52 1011.02 1010.53 1010.07 1009.66 1009.33 1009.10 1008.97 1008.94 1008.99 1009.13 1009.31 1009.54 1009.78 1010.03 1010.29 1010.53 1010.77 1010.99 1011.21
1014.32 1014.48 1014.43 1014.18 1013.80 1013.35 1012.90 1012.53 1012.29 1012.20 1012.26 1012.46 1012.76 1013.11 1013.46 1013.77 1013.99 1014.10 1014.09 1013.96 1013.71 1013.37 1012.94 1012.44 1011.91 1011.35 1010.80 1010.27 1009.79 1009.36 1009.01 1008.74 1008.56 1008.47 1008.46 1008.54 1008.69 1008.90 1009.16 1009.47 1009.79 1010.13 1010.46 1010.78
1014.82 1015.00 1014.98 1014.79 1014.46 1014.05 1013.62 1013.26 1013.00 1012.88 1012.91 1013.07 1013.34 1013.66 1013.99 1014.28 1014.48 1014.57 1014.54 1014.38 1014.10 1013.71 1013.24 1012.71 1012.14 1011.55 1010.96 1010.37 1009.81 1009.29 1008.82 1008.41 1008.08 1007.83 1007.69 1007.65 1007.72 1007.90 1008.17 1008.53 1008.94 1009.38 1009.83 1010.25
1015.21 1015.42 1015.45 1015.33 1015.08 1014.74 1014.39 1014.07 1013.83 1013.71 1013.71 1013.83 1014.04 1014.30 1014.56 1014.78 1014.91 1014.93 1014.83 1014.61 1014.27 1013.85 1013.34 1012.79 1012.20 1011.59 1010.97 1010.34 1009.72 1009.11 1008.53 1008.00 1007.52 1007.14 1006.87 1006.73 1006.73 1006.88 1007.17 1007.58 1008.07 1008.61 1009.17 1009.70
1015.49 1015.72 1015.82 1015.78 1015.63 1015.40 1015.14 1014.89 1014.69 1014.58 1014.56 1014.62 1014.75 1014.92 1015.07 1015.17 1015.19 1015.11 1014.93 1014.63 1014.24 1013.77 1013.24 1012.67 1012.08 1011.47 1010.83 1010.18 1009.52 1008.85 1008.19 1007.55 1006.97 1006.48 1006.11 1005.89 1005.84 1005.98 1006.28 1006.74 1007.31 1007.94 1008.59 1009.21
1015.69 1015.95 1016.12 1016.17 1016.12 1016.00 1015.83 1015.65 1015.50 1015.39 1015.33 1015.33 1015.36 1015.40 1015.42 1015.39 1015.28 1015.08 1014.79 1014.42 1013.97 1013.47 1012.94 1012.37 1011.79 1011.20 1010.58 1009.93 1009.26 1008.56 1007.85 1007.16 1006.51 1005.95 1005.52 1005.25 1005.18 1005.30 1005.64 1006.13 1006.76 1007.46 1008.18 1008.86
1015.86 1016.16 1016.39 1016.52 1016.57 1016.54 1016.46 1016.33 1016.20 1016.07 1015.96 1015.86 1015.77 1015.67 1015.54 1015.36 1015.11 1014.79 1014.40 1013.96 1013.47 1012.96 1012.43 1011.90 1011.36 1010.81 1010.23 1009.62 1008.98 1008.29 1007.58 1006.87 1006.21 1005.62 1005.17 1004.89 1004.81 1004.95 1005.30 1005.83 1006.49 1007.22 1007.98 1008.69
1016.06 1016.40 1016.69 1016.89 1017.02 1017.05 1017.01 1016.91 1016.76 1016.59 1016.39 1016.18 1015.95 1015.69 1015.39 1015.05 1014.66 1014.23 1013.76 1013.26 1012.75 1012.24 1011.75 1011.27 1010.79 1010.31 1009.81 1009.27 1008.69 1008.06 1007.39 1006.72 1006.09 1005.53 1005.09 1004.83 1004.76 1004.91 1005.27 1005.81 1006.48 1007.22 1007.98 1008.68
1016.37 1016.75 1017.08 1017.33 1017.49 1017.56 1017.53 1017.41 1017.21 1016.94 1016.63 1016.27 1015.87 1015.44 1014.98 1014.48 1013.96 1013.42 1012.87 1012.34 1011.82 1011.34 1010.90 1010.49 1010.10 1009.71 1009.31 1008.87 1008.38 1007.84 1007.27 1006.68 1006.11 1005.61 1005.22 1005.00 1004.96 1005.12 1005.49 1006.02 1006.67 1007.39 1008.10 1008.78
1016.82 1017.23 1017.59 1017.86 1018.03 1018.09 1018.02 1017.84 1017.54 1017.16 1016.70 1016.18 1015.60 1014.99 1014.36 1013.71 1013.06 1012.42 1011.82 1011.26 1010.75 1010.30 1009.92 1009.58 1009.29 1009.01 1008.71 1008.39 1008.02 1007.60 1007.14 1006.65 1006.18 1005.77 1005.46 1005.28 1005.28 1005.46 1005.81 1006.31 1006.93 1007.60 1008.27 1008.89
Thickness
5872 5859 5848 5853 5861 5860 5855 5850 5847 5854 5872 5860 5846 5839 5842 5851 5847 5840 5835 5830 5825 5820 5820 5817 5812 5808 5802 5797 5792 5788 5784 5782 5780 5776 5773 5770 5768 5769 5768 5768 5766 5764 5763 5762
5854 5847 5863 5874 5872 5863 5859 5851 5848 5857 5872 5861 5845 5839 5847 5850 5850 5848 5841 5834 5830 5825 5821 5818 5814 5810 5804 5799 5794 5790 5787 5785 5782 5779 5777 5775 5773 5772 5771 5770 5767 5765 5763 5762
5844 5857 5876 5869 5864 5859 5857 5855 5851 5852 5864 5863 5847 5827 5834 5848 5855 5855 5852 5847 5841 5832 5824 5819 5816 5813 5808 5802 5798 5795 5791 5788 5785 5784 5781 5779 5775 5772 5770 5768 5767 5766 5765 5763
5853 5869 5869 5863 5859 5859 5847 5871 5867 5861 5849 5838 5840 5804 5819 5839 5845 5848 5850 5850 5845 5840 5833 5826 5821 5816 5812 5808 5804 5799 5795 5791 5788 5786 5782 5778 5772 5769 5769 5769 5769 5768 5767 5765
5848 5861 5859 5854 5861 5864 5859 5875 5870 5861 5850 5835 5836 5816 5811 5836 5834 5842 5849 5849 5850 5846 5839 5832 5827 5822 5818 5815 5809 5803 5798 5794 5791 5788 5785 5780 5776 5774 5774 5773 5770 5769 5767 5766
5856 5872 5870 5866 5874 5875 5875 5869 5862 5858 5845 5816 5835 5823 5809 5827 5836 5847 5850 5853 5854 5851 5845 5838 5833 5828 5823 5819 5814 5807 5800 5795 5793 5790 5787 5782 5778 5776 5774 5772 5769 5768 5767 5766
5837 5853 5869 5873 5859 5868 5865 5844 5820 5809 5803 5801 5831 5826 5823 5844 5860 5861 5857 5857 5858 5855 5847 5838 5832 5829 5825 5821 5816 5811 5803 5797 5795 5792 5789 5786 5782 5779 5775 5773 5771 5769 5767 5765
5819 5825 5855 5865 5858 5852 5855 5846 5815 5788 5781 5794 5810 5809 5833 5864 5869 5872 5870 5866 5862 5856 5851 5844 5839 5834 5829 5824 5819 5813 5806 5800 5797 5794 5791 5788 5785 5781 5778 5776 5774 5771 5769 5767
5826 5828 5863 5870 5872 5864 5849 5846 5854 5828 5812 5795 5793 5813 5837 5860 5860 5865 5866 5864 5859 5856 5852 5847 5842 5837 5833 5828 5823 5818 5810 5804 5800 5797 5793 5789 5786 5783 5780 5779 5776 5773 5771 5769
5839 5825 5848 5864 5868 5866 5861 5856 5844 5826 5798 5786 5797 5806 5811 5830 5839 5856 5860 5858 5857 5856 5852 5849 5846 5841 5836 5832 5827 5821 5815 5808 5804 5800 5797 5793 5788 5785 5782 5779 5776 5773 5771 5768
5841 5823 5833 5847 5840 5840 5847 5844 5841 5833 5826 5802 5786 5793 5830 5832 5843 5848 5857 5859 5857 5855 5854 5850 5848 5845 5840 5835 5829 5821 5816 5810 5805 5802 5798 5795 5791 5787 5784 5780 5777 5773 5770 5767
5834 5825 5816 5833 5855 5862 5853 5848 5842 5817 5814 5819 5804 5797 5845 5845 5856 5857 5858 5858 5857 5857 5856 5853 5850 5845 5840 5834 5829 5823 5818 5812 5807 5804 5799 5795 5791 5788 5783 5780 5776 5773 5770 5766
5823 5811 5794 5806 5827 5843 5841 5846 5850 5847 5833 5820 5808 5806 5848 5853 5855 5860 5859 5856 5856 5856 5854 5852 5848 5843 5839 5834 5830 5825 5820 5814 5810 5805 5799 5794 5790 5786 5782 5779 5776 5773 5769 5766
5819 5804 5796 5793 5808 5827 5827 5834 5842 5837 5823 5818 5818 5818 5833 5841 5845 5850 5853 5852 5853 5852 5848 5847 5844 5841 5838 5835 5830 5825 5820 5817 5811 5806 5799 5793 5790 5786 5782 5779 5775 5772 5768 5764
5809 5794 5801 5811 5824 5829 5828 5829 5834 5830 5830 5818 5820 5822 5830 5837 5843 5847 5850 5849 5847 5843 5842 5840 5839 5837 5835 5832 5829 5825 5821 5817 5812 5805 5799 5794 5790 5786 5782 5777 5773 5770 5766 5762
5797 5786 5792 5796 5812 5818 5819 5825 5828 5830 5830 5828 5825 5823 5840 5843 5847 5843 5843 5841 5836 5835 5836 5837 5836 5834 5831 5829 5826 5823 5819 5816 5811 5804 5799 5795 5790 5784 5779 5775 5771 5767 5762 5759
5784 5778 5774 5778 5797 5801 5795 5814 5820 5823 5830 5826 5814 5821 5836 5833 5832 5831 5833 5832 5830 5832 5833 5832 5832 5830 5829 5828 5826 5820 5818 5815 5809 5803 5798 5793 5788 5782 5777 5774 5768 5763 5759 5755
5771 5766 5769 5772 5775 5759 5795 5827 5826 5820 5823 5826 5823 5825 5827 5828 5828 5830 5831 5828 5826 5827 5828 5829 5829 5829 5829 5828 5824 5820 5816 5811 5806 5800 5796 5791 5786 5780 5775 5770 5765 5760 5756 5751
5775 5763 5759 5762 5760 5768 5794 5812 5814 5807 5804 5817 5815 5817 5822 5826 5822 5818 5824 5824 5822 5823 5824 5826 5828 5827 5825 5823 5821 5815 5810 5806 5801 5796 5792 5788 5783 5777 5771 5766 5761 5757 5752 5747
5771 5765 5753 5754 5747 5748 5776 5806 5819 5808 5785 5805 5809 5807 5810 5809 5795 5797 5813 5816 5817 5818 5820 5820 5822 5822 5818 5817 5815 5808 5803 5799 5795 5792 5789 5785 5780 5774 5768 5763 5758 5754 5749 5743
5747 5747 5743 5744 5742 5755 5781 5800 5803 5770 5768 5795 5799 5798 5798 5793 5792 5799 5806 5808 5809 5810 5812 5814 5813 5811 5811 5810 5806 5799 5796 5793 5792 5789 5785 5780 5775 5770 5764 5758 5753 5748 5744 5739
5742 5739 5737 5739 5732 5739 5776 5781 5769 5766 5784 5787 5788 5789 5787 5788 5792 5794 5795 5795 5798 5799 5802 5803 5801 5800 5802 5802 5797 5791 5788 5788 5786 5782 5777 5772 5768 5764 5759 5752 5747 5742 5737 5732
5744 5744 5744 5739 5739 5754 5766 5766 5771 5776 5774 5776 5777 5779 5779 5779 5780 5782 5783 5784 5787 5789 5791 5793 5791 5790 5791 5791 5788 5782 5781 5780 5777 5772 5768 5764 5760 5756 5752 5746 5740 5736 5731 5726
5740 5747 5740 5735 5740 5748 5755 5760 5763 5765 5765 5769 5771 5771 5771 5768 5770 5771 5772 5773 5776 5779 5781 5782 5781 5778 5777 5778 5777 5775 5774 5772 5767 5762 5758 5755 5751 5747 5743 5739 5734 5729 5724 5721
5723 5728 5728 5725 5731 5738 5742 5746 5751 5754 5757 5757 5758 5760 5760 5760 5760 5761 5761 5763 5766 5769 5771 5771 5770 5768 5767 5768 5767 5767 5765 5761 5756 5752 5749 5746 5742 5738 5734 5729 5725 5721 5717 5714
5714 5710 5707 5709 5719 5721 5726 5736 5740 5739 5742 5744 5745 5747 5750 5751 5750 5751 5752 5755 5757 5758 5760 5760 5759 5759 5758 5758 5757 5756 5754 5751 5746 5742 5740 5737 5734 5731 5726 5721 5716 5711 5708 5705